Theta_e
333 332 333 332 332 332 331 330 329 327 328 328 329 331 332 329 328 325 324 325 322 318 316 314 314 316 316 319 322 323 322 323 323 322 323 326 328 328 329 329 329 329 329 329 329 329 328 327 327 328 329 329 328 328 328 327 326 327 328 329 329 328 328 328 328 328 328 327 327 327 326 326 326 326 325 325 325 325 325 326 326 327 327 327 327
333 331 331 331 332 332 331 330 329 328 329 329 329 331 330 329 328 326 324 323 319 315 314 313 315 316 317 318 319 320 322 323 322 320 321 324 326 327 327 328 329 329 329 328 328 328 328 327 327 327 328 328 327 328 328 327 327 327 328 329 329 329 329 328 328 328 327 327 327 327 326 326 325 325 324 324 324 323 322 322 323 324 326 326 327
333 332 331 331 332 331 330 330 329 329 329 329 329 330 329 328 328 325 321 319 317 315 313 314 316 319 318 318 318 320 321 322 322 321 320 321 323 326 327 327 327 327 327 327 326 326 327 326 326 325 326 326 327 327 327 327 327 328 329 329 329 329 329 329 328 328 327 327 327 327 326 325 325 323 323 323 323 323 322 321 321 322 324 326 326
333 333 332 331 331 330 331 330 329 329 330 330 330 329 329 328 325 320 316 315 315 314 313 315 318 318 317 319 320 320 320 321 321 321 320 318 317 320 324 326 326 326 326 326 325 324 324 324 324 323 324 325 326 326 327 327 327 328 328 328 328 328 328 329 329 328 329 328 327 326 326 325 324 323 323 322 323 322 322 322 322 321 322 324 325
331 332 331 331 330 330 331 329 329 329 329 329 329 328 328 327 320 314 313 313 314 313 312 314 317 316 317 319 320 319 320 318 318 319 318 318 315 313 313 317 320 321 322 321 320 318 319 320 320 318 320 324 326 325 326 325 326 327 327 327 328 328 328 328 328 328 328 328 327 326 325 324 324 323 322 323 323 323 323 322 322 322 322 322 322
330 330 330 330 330 332 331 329 328 329 329 329 329 328 328 325 316 311 313 313 312 312 312 314 316 316 315 316 316 316 316 316 317 319 318 318 316 311 308 308 311 314 314 313 311 311 312 314 314 314 317 323 324 324 324 325 325 325 326 326 327 327 327 327 327 326 326 326 327 327 325 324 323 323 322 323 324 323 322 321 321 321 322 321 321
331 329 329 330 331 333 331 329 328 328 329 329 328 328 328 323 314 311 312 312 312 312 314 316 316 317 316 314 315 314 314 315 316 317 318 317 314 310 308 308 310 312 312 313 313 313 313 313 316 319 321 323 324 323 323 323 323 324 324 324 325 326 326 325 325 325 325 325 326 326 325 324 323 323 323 323 323 322 322 322 321 321 322 322 322
332 329 328 330 332 333 331 330 329 329 329 329 328 328 325 319 312 311 312 311 312 313 315 317 317 317 317 317 315 313 314 315 311 310 313 313 311 309 309 311 313 314 314 315 316 317 316 314 318 323 324 323 324 323 322 322 322 323 323 323 323 324 324 323 323 324 325 325 325 324 324 324 323 323 323 323 322 322 322 322 322 322 322 322 321
331 329 327 330 332 333 332 331 330 330 329 329 328 326 322 316 312 312 311 311 312 314 317 319 320 320 320 318 315 313 315 315 309 306 308 308 308 309 310 312 314 316 316 316 316 317 317 315 317 321 322 322 322 322 321 322 321 321 322 321 321 321 322 322 323 324 324 324 324 324 324 324 324 324 324 323 323 322 323 322 322 321 320 321 321
329 328 327 330 333 333 332 331 330 330 329 328 328 324 318 314 313 312 312 313 316 319 321 322 322 322 322 321 317 314 315 313 308 307 307 307 307 307 308 310 313 315 315 315 316 318 317 315 315 317 319 319 319 319 320 320 319 319 317 316 317 317 318 320 322 322 322 323 323 324 324 324 324 324 323 322 322 322 322 321 321 320 317 317 318
328 328 329 331 333 332 332 331 330 330 329 329 328 322 317 316 316 314 313 314 316 320 322 323 324 323 323 322 320 316 313 310 307 307 307 307 307 306 306 307 309 312 312 313 316 318 317 316 315 315 314 313 314 316 315 312 310 310 309 310 312 314 316 319 320 320 320 320 321 322 323 323 323 322 322 322 322 321 321 320 319 317 314 313 314
328 330 331 332 332 332 332 331 330 330 329 329 328 324 321 320 318 315 314 313 313 315 317 321 323 324 323 323 321 317 311 308 308 308 308 307 306 306 306 306 306 307 309 312 316 318 317 315 312 310 308 307 309 309 307 305 304 303 304 307 310 312 314 316 314 315 314 312 314 319 321 321 320 319 318 317 315 313 313 313 311 309 308 309 312
330 330 332 332 332 332 332 331 330 330 329 329 329 326 325 322 318 316 316 314 314 313 313 318 323 324 323 322 321 317 311 308 308 308 307 307 306 305 305 306 305 306 307 309 313 316 314 311 307 305 305 305 306 306 305 305 305 304 304 306 307 308 309 308 306 307 307 306 309 312 314 314 313 311 309 308 306 305 306 306 305 305 305 308 311
330 330 331 332 332 331 331 331 330 330 329 329 328 328 328 326 324 323 321 318 316 314 314 320 323 323 322 322 321 316 310 308 308 308 308 306 306 305 305 305 306 305 306 307 310 311 309 306 305 306 306 306 306 306 306 306 306 306 306 305 306 306 305 305 305 305 305 306 306 307 307 307 306 305 304 304 303 303 304 303 303 304 305 308 312
329 329 330 331 331 332 331 331 330 329 329 329 329 329 329 328 329 328 327 325 321 318 319 322 321 321 321 318 315 313 309 308 308 307 307 306 306 306 305 306 306 305 306 306 307 307 306 306 306 306 306 306 306 306 306 306 306 306 306 305 305 305 305 305 305 305 305 305 305 304 304 304 304 303 303 303 303 303 303 303 302 303 303 306 310
326 327 328 329 330 330 330 330 330 329 329 328 329 330 330 330 330 330 331 329 325 322 323 322 320 320 319 314 312 312 310 309 308 307 307 306 306 306 305 306 306 305 306 305 305 306 306 306 306 306 306 306 306 306 306 306 305 305 305 305 305 305 305 305 304 304 304 304 304 303 303 303 303 303 303 303 303 304 304 303 303 303 303 303 305
325 326 327 327 328 328 329 329 328 329 328 328 329 330 331 331 331 332 332 329 324 323 322 319 316 316 315 313 313 313 311 311 309 307 307 307 306 306 306 306 306 306 306 306 306 305 306 306 306 306 306 306 306 306 305 305 305 305 305 305 304 304 304 304 304 304 303 304 304 303 303 304 304 304 304 305 305 305 305 306 305 305 305 303 304
325 326 326 326 327 327 327 328 327 328 327 327 328 329 331 332 333 334 333 326 321 322 322 318 314 314 315 315 313 312 314 315 312 309 308 307 307 306 307 306 306 306 306 305 305 306 306 306 306 306 306 306 306 305 305 306 305 306 306 305 306 306 305 305 305 305 305 306 305 305 305 305 306 306 307 307 307 307 307 307 307 307 307 306 305
324 325 325 326 326 326 327 327 327 326 326 326 326 327 329 331 333 334 333 327 322 323 324 320 317 317 319 317 313 314 317 316 313 311 309 307 307 307 306 307 307 306 306 306 306 306 306 306 306 306 306 306 306 306 306 307 307 307 308 308 307 308 307 307 307 307 307 307 307 307 307 307 308 308 309 309 309 309 308 308 308 308 307 306 306
324 324 324 325 325 326 326 326 326 326 327 328 328 328 327 329 330 330 330 328 326 326 325 323 321 320 319 316 314 316 319 316 313 313 312 310 309 308 307 307 307 307 307 306 306 306 306 306 307 306 307 306 306 307 307 307 308 308 308 308 308 308 308 308 308 307 307 308 308 308 308 308 308 309 310 310 310 310 310 309 309 309 308 307 306
324 324 324 325 325 325 325 325 326 326 327 328 328 328 327 327 328 328 328 327 326 326 326 325 323 320 318 316 316 317 319 318 316 316 316 312 311 311 310 310 310 308 307 307 307 307 307 307 307 307 307 307 307 307 307 307 308 308 308 308 308 308 308 309 308 308 308 308 307 307 307 307 308 308 309 310 310 310 310 310 310 309 309 309 308
324 324 324 324 324 324 324 324 325 325 325 326 326 327 327 327 327 327 327 326 326 326 326 326 324 321 319 317 316 317 318 318 317 318 317 313 310 313 315 314 313 312 311 309 308 308 308 307 308 308 307 308 308 308 308 308 308 308 308 308 308 308 308 309 308 308 308 308 308 307 307 307 307 307 308 308 309 310 310 310 310 310 309 309 309
324 324 324 324 324 324 323 324 323 324 324 323 324 325 325 326 326 326 325 325 325 326 326 326 325 322 320 317 316 317 318 318 317 318 318 313 310 314 317 317 317 317 316 315 313 312 312 312 311 310 310 309 310 310 310 310 309 309 309 309 309 309 308 308 308 308 308 308 308 308 307 307 307 307 307 307 308 309 309 310 310 310 310 309 309
323 323 323 323 324 324 324 324 323 323 323 322 323 324 324 325 325 325 325 324 325 325 325 326 325 323 320 316 315 317 317 318 317 318 317 313 310 314 318 318 318 319 318 318 317 317 316 317 316 316 315 315 314 314 314 314 313 312 311 311 311 310 310 309 308 308 308 308 308 308 308 308 307 308 307 307 307 307 308 309 309 309 309 309 309
322 322 323 323 323 323 323 324 323 323 322 322 323 323 324 324 324 325 325 324 324 324 324 325 325 323 320 316 314 315 317 317 317 316 315 312 311 314 318 319 318 319 319 318 318 318 318 318 318 317 318 318 318 317 317 317 317 316 316 315 314 314 313 313 311 310 309 309 309 309 309 309 308 308 308 308 308 307 308 308 308 309 309 309 309
320 319 317 317 318 318 320 322 323 323 323 323 323 323 324 324 323 323 324 325 325 324 324 325 324 323 321 319 316 316 317 318 317 316 314 314 313 314 316 317 316 317 319 319 319 319 318 319 318 318 318 319 319 319 318 318 318 318 318 318 317 317 316 316 315 314 314 313 311 310 310 310 309 309 309 309 309 309 309 309 308 308 309 309 309
316 315 313 312 313 314 318 321 323 323 323 323 323 323 324 324 323 322 323 324 325 325 324 324 323 323 322 321 320 320 320 319 318 317 316 316 317 316 317 317 315 317 319 319 319 319 319 319 319 318 318 319 319 319 319 318 319 319 319 318 318 318 318 318 317 317 316 316 315 314 313 313 312 310 309 309 309 309 309 310 309 309 308 308 308
316 314 313 312 312 312 314 316 318 319 321 322 323 323 323 324 323 322 322 323 325 324 323 323 322 321 320 320 321 321 321 321 319 317 317 319 319 318 319 318 316 317 320 320 319 319 319 319 319 319 319 318 319 320 319 319 319 319 319 318 318 317 317 317 318 318 317 317 317 317 316 315 314 313 312 310 310 310 310 310 310 309 308 308 308
317 317 316 315 313 312 312 312 313 314 315 317 319 321 322 323 323 322 321 321 323 323 323 322 322 321 320 320 319 318 319 319 318 318 319 319 319 319 320 319 318 318 320 320 319 319 319 319 318 318 317 318 319 319 319 319 319 320 319 319 318 317 317 317 317 318 318 317 317 317 317 317 316 315 313 311 311 310 310 310 310 309 308 308 308
315 316 317 317 315 314 313 312 312 312 312 312 313 315 316 317 317 318 320 321 322 323 323 322 321 321 321 320 320 318 318 318 318 318 319 319 319 319 319 319 319 318 318 319 319 318 318 317 317 316 316 318 319 319 318 318 318 319 319 319 319 318 318 317 317 318 318 318 317 317 317 317 316 315 314 313 312 311 310 311 310 309 308 308 307
314 313 314 314 315 315 314 313 312 312 312 311 311 311 311 311 311 314 318 321 321 322 322 322 322 322 321 321 320 320 320 320 319 319 318 319 319 319 318 318 319 318 317 316 316 317 316 316 316 317 318 319 319 318 318 318 318 318 319 319 319 318 318 318 318 318 318 318 318 317 317 316 316 315 314 313 312 311 311 311 310 309 308 308 307
313 313 312 311 312 313 313 312 312 312 312 312 312 311 310 309 310 311 314 315 315 316 318 318 319 319 320 320 319 320 320 320 320 319 319 319 320 319 319 319 319 318 317 316 316 316 316 316 317 318 318 319 319 319 319 319 319 320 320 320 319 319 319 319 319 318 318 318 318 317 317 316 316 315 314 313 312 311 311 310 309 308 308 307 307
312 312 311 310 310 310 311 311 311 311 312 313 313 313 311 309 309 310 311 311 311 311 311 312 314 314 315 317 317 318 319 319 319 319 319 319 319 318 318 318 318 318 318 317 318 317 317 317 318 318 319 319 318 317 316 315 315 316 318 319 320 320 320 320 320 319 319 319 318 317 316 316 315 314 313 312 312 311 310 309 308 308 307 306 306
308 309 310 309 309 308 308 308 309 310 311 311 310 311 311 310 310 311 311 311 311 310 310 310 310 311 312 313 315 316 316 315 315 315 315 316 316 316 316 316 317 318 317 317 317 317 317 317 317 317 317 316 315 314 311 309 309 309 311 313 315 317 318 319 320 320 319 318 318 317 316 316 315 314 312 312 311 310 309 308 308 307 306 306 305
303 305 306 308 308 308 307 307 307 307 308 308 308 308 309 309 309 310 310 309 310 310 309 309 308 308 310 311 312 312 312 312 314 314 314 314 314 315 316 316 317 317 316 314 314 315 316 316 315 314 313 312 311 311 309 308 308 307 307 308 309 310 311 313 316 318 318 317 317 317 316 315 314 312 312 311 310 309 309 308 307 306 306 305 304
301 302 303 305 306 306 307 306 306 306 306 306 306 307 307 307 308 308 308 307 308 308 308 308 307 307 307 308 309 310 309 310 311 313 313 313 313 313 314 314 315 314 313 313 313 314 314 314 314 313 311 309 309 309 308 308 307 308 308 308 309 308 309 311 314 316 317 317 317 316 315 313 312 311 311 311 310 309 308 307 306 306 306 305 304
301 301 302 302 302 303 303 304 304 305 306 307 307 306 306 306 307 307 307 307 307 307 307 308 308 307 307 307 308 308 308 307 307 309 310 310 310 311 311 311 311 311 311 311 311 312 311 311 310 308 307 306 307 307 307 307 307 308 309 310 310 310 310 311 312 314 316 316 316 316 314 312 311 311 312 311 310 308 307 306 306 305 305 304 303
301 301 302 301 301 301 301 301 302 303 304 306 307 306 306 306 306 307 307 307 307 307 307 307 307 307 307 307 307 307 307 307 307 308 308 308 308 308 307 306 306 306 306 306 306 306 306 306 305 306 306 305 306 308 308 308 307 309 310 311 311 311 310 310 310 311 313 314 315 315 313 312 311 311 311 310 309 307 306 305 305 304 304 303 302
300 301 301 301 302 302 302 301 301 301 301 302 304 306 306 306 307 307 307 307 307 306 306 306 307 306 307 307 307 306 307 307 307 308 308 308 308 306 304 302 303 303 302 302 301 301 302 302 302 304 305 305 305 307 308 308 308 309 310 310 311 311 311 310 310 310 311 313 313 313 312 311 310 310 310 309 308 307 306 305 304 304 303 302 302
300 300 300 300 300 300 301 302 302 302 301 300 301 303 303 303 305 305 306 307 307 307 307 307 307 306 306 306 306 306 307 307 308 307 308 307 307 306 303 302 302 302 302 302 302 302 302 301 301 301 301 302 303 304 306 308 308 309 310 310 311 311 312 311 311 312 312 312 312 312 311 310 309 309 308 308 307 306 305 304 304 303 302 301 300
299 299 299 298 298 298 298 299 300 301 302 301 301 301 301 302 302 303 303 304 305 306 306 306 306 306 306 306 306 306 307 307 307 307 307 307 307 306 305 303 303 303 303 303 304 304 303 303 301 301 301 300 301 302 305 307 309 309 310 310 310 312 312 312 312 312 312 312 311 310 309 309 308 307 307 306 305 305 304 303 303 302 301 300 299
298 298 298 298 297 297 297 297 298 299 300 301 301 301 301 302 302 302 303 303 304 304 305 305 305 305 305 306 306 306 306 306 306 306 306 306 306 306 305 304 304 305 305 306 306 306 305 304 303 302 301 301 300 301 303 306 308 309 310 310 310 311 312 312 312 311 311 310 309 308 308 307 307 306 305 305 304 303 303 302 301 300 298 297 296
298 298 298 298 298 297 297 297 297 298 298 299 300 300 300 301 301 301 302 302 303 303 303 304 305 305 305 305 305 305 306 305 306 306 305 305 305 304 304 305 305 305 306 306 306 306 305 305 303 302 301 301 301 301 303 305 308 309 310 310 310 311 311 312 311 310 310 309 308 308 307 307 306 305 304 303 303 302 301 300 298 297 295 295 294
297 298 298 298 298 298 298 298 297 298 298 298 298 299 299 299 300 300 301 302 302 302 302 302 303 303 304 304 304 305 305 305 305 305 305 305 304 304 304 304 304 305 305 305 304 304 304 304 303 302 302 302 302 303 304 307 309 310 310 310 310 311 311 311 310 309 308 308 307 306 305 304 303 303 302 301 300 299 297 296 295 295 294 294 294
297 297 297 297 298 298 298 298 298 298 298 298 298 298 298 298 299 299 300 300 301 301 302 302 302 302 302 303 303 304 304 304 304 304 304 304 304 304 304 304 304 304 304 304 303 303 303 303 303 303 304 304 304 305 307 309 309 310 310 310 310 310 310 310 309 308 307 305 304 304 303 303 302 301 300 298 296 295 295 294 294 294 294 293 293
297 297 297 297 298 298 298 298 298 298 298 298 298 298 298 298 298 299 299 300 300 300 301 301 301 301 302 302 302 302 303 303 303 303 303 303 304 304 304 304 304 304 304 304 303 303 303 303 303 303 304 304 305 305 307 309 310 310 310 310 310 310 309 308 308 306 305 304 303 302 301 300 299 297 296 295 294 294 294 294 294 293 293 293 293
297 297 297 298 298 298 298 298 298 298 298 298 298 299 298 298 298 298 299 299 300 300 301 301 301 301 301 302 302 302 302 303 303 303 303 303 303 303 303 303 303 303 303 303 303 303 303 303 304 304 304 305 305 306 308 309 309 309 309 309 309 308 307 306 306 305 304 302 301 299 297 296 295 295 294 294 294 294 293 293 293 293 293 293 292
296 296 296 297 297 297 298 298 298 298 298 298 298 298 298 298 298 298 298 298 299 299 300 300 301 302 302 302 302 302 302 302 302 303 303 303 303 302 302 302 302 302 302 303 303 303 303 304 304 304 305 306 306 306 307 308 308 308 308 307 307 306 305 304 303 302 300 298 296 295 295 294 294 294 294 294 293 293 293 293 293 293 293 293 292
294 294 295 295 295 296 296 297 298 298 298 298 298 298 298 298 298 298 298 298 298 298 299 299 300 301 301 302 302 302 302 302 302 302 303 303 302 302 302 302 302 302 302 302 302 302 302 303 304 305 305 305 304 305 306 306 306 306 305 304 304 304 303 302 299 297 296 295 295 295 294 294 294 294 293 293 293 293 293 293 293 293 293 293 293
293 293 293 293 294 294 294 295 296 297 297 298 298 298 298 298 298 298 298 298 298 298 298 298 299 299 300 301 301 302 302 302 302 302 303 302 303 302 302 302 302 302 302 302 301 301 301 303 304 305 305 304 304 305 305 305 304 303 302 302 302 301 299 297 296 295 295 295 295 294 294 293 293 293 293 293 293 293 293 293 293 293 293 293 293
291 291 292 292 293 293 293 293 294 294 295 296 297 298 298 298 298 298 298 298 298 298 298 298 298 299 299 300 300 300 301 301 302 302 302 302 302 302 302 302 302 302 302 302 301 301 302 303 304 304 305 305 305 305 304 303 302 302 301 301 300 297 296 296 296 296 295 295 294 293 293 293 292 292 293 293 293 293 293 294 294 294 293 293 293
Wind_Speed
30 30 29 29 29 28 28 27 25 24 25 27 26 25 24 20 17 15 14 13 12 12 11 9 8 6 7 9 9 8 7 6 6 6 7 7 7 8 9 9 9 8 8 9 9 10 11 11 11 12 13 14 14 14 13 14 15 16 19 19 16 15 14 13 13 12 12 12 11 11 10 9 9 9 10 11 11 12 12 11 11 12 13 12 12
31 31 31 31 30 29 28 27 25 25 26 26 25 25 24 21 17 16 15 15 13 13 12 10 8 6 5 7 8 7 6 5 5 5 6 6 6 7 8 9 9 9 9 9 8 9 10 10 9 8 9 11 13 14 15 16 17 16 19 21 18 16 15 14 13 12 12 12 11 10 9 8 8 9 9 9 10 10 10 10 10 11 10 10 12
33 33 33 32 31 29 29 27 25 26 25 24 25 24 23 21 17 17 16 15 15 14 12 11 10 9 6 6 6 6 5 5 5 5 5 5 5 7 8 8 9 10 10 8 7 8 9 8 6 4 5 7 9 12 14 16 16 16 19 21 18 17 16 14 12 11 11 11 10 9 8 8 7 7 8 8 8 9 9 9 9 9 9 8 8
35 34 34 32 30 29 29 28 27 27 26 25 25 23 22 20 17 17 16 16 17 15 14 13 12 10 8 6 6 5 6 6 6 6 6 6 6 7 8 9 10 10 10 9 8 7 8 7 6 4 4 5 8 9 10 12 13 14 16 18 17 16 15 13 12 10 10 10 9 8 7 7 6 6 6 6 6 6 7 7 7 7 8 7 7
37 37 37 34 31 31 30 29 29 28 27 26 24 22 20 19 18 18 18 19 19 17 16 15 14 12 10 9 8 7 8 7 7 7 7 7 6 7 8 9 10 10 10 11 10 8 8 7 6 6 6 6 7 7 6 7 8 10 12 12 13 13 12 12 12 11 11 11 10 7 6 5 5 5 5 4 2 2 2 2 2 3 3 4 4
34 36 37 36 32 30 30 32 31 30 28 25 23 21 20 20 20 21 21 21 21 19 17 16 15 13 9 7 7 7 7 7 7 7 8 8 8 6 6 7 8 9 9 9 9 7 6 5 4 6 7 7 6 4 4 4 6 7 9 10 12 12 12 12 12 12 12 12 12 10 7 6 5 5 6 4 2 2 2 2 1 0 1 1 2
32 32 34 35 32 30 31 34 34 33 30 26 24 22 22 23 23 23 24 23 22 21 18 16 15 12 8 5 4 4 4 5 6 8 10 10 9 7 5 5 6 7 7 6 6 5 4 1 2 5 6 5 5 3 3 3 3 4 6 7 9 10 11 10 10 11 11 11 11 11 9 8 7 5 6 5 3 4 4 4 3 2 1 2 2
33 32 34 36 33 30 32 35 35 33 30 27 25 23 24 25 25 25 25 24 23 21 19 16 14 12 9 7 5 3 3 3 5 8 9 10 9 8 6 5 5 5 5 5 5 5 2 2 4 6 5 4 4 2 1 1 1 1 1 2 3 5 7 8 8 8 8 9 9 9 9 9 7 6 6 5 4 4 4 4 3 3 4 4 4
33 32 34 36 34 30 30 33 33 32 30 27 24 23 24 25 25 25 24 24 23 21 19 16 15 13 11 9 6 5 6 5 5 7 8 9 9 8 7 6 6 5 5 5 5 4 2 3 5 5 5 4 4 3 2 1 2 2 2 1 1 1 0 3 4 3 3 5 6 7 8 9 8 8 6 6 6 6 6 5 4 5 4 4 4
31 31 33 35 33 30 29 29 30 30 29 26 23 23 25 25 24 24 23 23 22 21 18 17 16 15 15 13 9 8 8 7 7 8 7 8 7 7 6 6 7 6 6 5 5 5 3 3 3 3 3 3 3 3 3 4 5 6 6 4 1 2 3 3 4 4 2 1 3 4 4 6 6 6 6 5 5 5 5 5 4 4 3 2 1
30 30 30 32 31 29 28 27 28 29 27 25 24 23 25 25 24 24 23 23 23 22 20 19 19 18 17 16 13 10 8 8 8 8 6 6 6 6 6 6 7 7 6 5 6 5 3 2 2 1 1 2 2 2 3 4 5 5 4 2 1 3 4 5 5 5 4 3 3 3 2 2 2 2 2 2 3 3 3 3 3 3 2 2 1
29 29 29 29 29 29 28 28 28 28 27 26 25 24 26 27 27 26 25 25 25 25 24 22 21 20 19 18 15 11 9 8 8 6 5 6 6 6 7 7 6 6 7 7 7 7 4 2 1 2 2 2 3 3 4 4 4 3 3 4 4 4 4 4 3 3 3 3 3 3 3 3 2 2 2 2 2 3 3 3 3 2 1 3 4
27 29 30 30 30 30 29 28 28 28 28 28 27 27 28 29 30 29 29 30 30 29 26 24 22 20 18 18 16 12 9 9 8 6 5 5 6 6 6 6 6 6 6 7 8 7 4 3 5 7 8 9 8 8 8 9 9 9 8 7 6 5 5 4 4 4 4 3 3 3 3 3 2 2 1 1 2 2 2 3 2 1 3 5 7
25 28 30 31 32 31 30 29 29 29 29 29 29 30 30 31 31 31 33 34 33 31 29 26 22 19 16 16 16 11 8 10 9 6 5 5 5 5 5 5 5 5 6 7 7 7 6 7 9 10 10 10 9 8 8 9 9 9 8 7 7 6 5 5 5 4 4 4 3 3 2 1 0 1 1 1 2 2 2 3 3 1 2 6 8
21 24 26 28 29 30 30 29 29 29 29 30 31 32 33 33 33 33 35 36 36 34 30 25 20 18 16 17 15 10 9 12 11 8 6 6 6 6 6 6 6 6 7 8 9 9 9 9 9 9 9 9 8 7 7 7 8 8 7 6 6 6 5 5 5 4 4 4 3 3 3 2 2 3 3 3 3 3 3 4 4 3 2 4 6
13 16 18 20 23 26 28 29 29 29 29 30 32 34 35 34 34 35 35 37 35 30 25 20 19 20 18 17 16 13 13 16 14 11 8 7 8 7 7 7 7 8 8 9 9 9 9 8 8 8 8 8 7 7 7 8 8 8 7 7 6 6 6 5 5 5 5 5 4 4 3 3 4 4 4 4 4 5 5 6 6 5 3 3 3
9 11 12 15 17 19 21 23 25 27 28 29 31 34 35 34 34 35 35 36 33 26 23 24 28 28 22 19 19 17 17 18 15 12 11 10 10 9 8 8 9 9 9 9 9 9 8 8 8 8 8 8 8 8 8 9 9 9 9 9 8 8 8 7 7 7 7 6 6 5 4 5 6 6 6 6 7 7 8 9 9 8 7 6 4
10 9 9 11 12 13 14 15 17 19 22 23 24 28 31 33 33 34 34 32 28 21 23 27 32 31 25 23 23 20 19 17 13 11 12 12 12 11 10 10 9 9 10 10 10 10 9 9 9 9 9 9 9 10 10 10 10 10 10 10 9 9 9 9 8 8 8 8 7 6 6 6 7 8 8 8 9 9 9 10 10 11 11 10 9
13 13 13 13 13 12 11 11 12 13 15 17 17 21 27 32 32 32 32 26 20 18 21 26 32 30 25 26 26 23 21 17 12 11 12 15 15 14 13 11 10 10 10 10 10 10 9 9 9 9 9 9 10 10 11 11 11 10 10 9 8 8 8 7 7 6 6 6 6 6 6 6 6 7 7 8 8 8 9 9 10 11 11 11 11
16 16 14 13 12 11 9 8 9 9 11 12 12 14 21 26 28 28 28 24 20 19 20 24 29 26 23 27 27 25 23 18 15 13 13 14 15 14 14 12 11 11 11 11 10 9 9 8 8 8 8 8 8 9 9 9 9 8 8 7 6 5 5 4 4 4 3 3 3 3 3 3 4 4 5 5 6 7 7 7 8 9 10 11 11
16 15 13 11 9 9 8 7 7 7 7 7 6 8 11 15 18 21 23 22 20 19 18 21 25 23 22 27 28 26 23 19 18 15 12 14 15 15 14 12 11 12 11 11 11 9 9 8 7 7 6 6 6 6 6 6 6 7 6 6 5 4 3 2 2 1 1 1 0 0 0 1 2 2 2 2 3 4 4 5 6 7 8 9 10
12 11 10 9 8 8 8 7 6 5 4 4 4 5 6 8 11 14 17 18 18 17 16 18 23 24 25 28 28 26 23 20 19 16 13 16 18 15 14 13 12 11 11 11 10 9 9 8 8 7 7 6 6 5 5 5 5 5 5 5 5 5 4 4 3 4 4 3 3 3 3 3 3 3 3 1 0 1 2 3 4 5 6 7 8
10 9 9 9 9 9 8 7 6 4 3 3 3 4 5 6 8 10 11 12 14 15 15 17 22 24 26 30 29 26 24 21 20 18 16 17 18 15 14 15 14 13 13 11 10 9 9 8 8 8 8 7 7 7 7 7 6 6 6 6 6 6 6 6 6 6 7 6 5 5 5 5 5 5 5 4 3 2 2 3 4 5 7 8 9
13 13 11 10 8 7 7 6 5 4 4 3 3 4 4 5 6 7 8 10 11 12 13 17 21 23 25 29 28 26 25 23 22 21 19 20 20 16 15 15 15 16 17 15 13 12 10 9 9 8 9 9 8 8 8 8 7 7 7 7 7 7 7 8 8 8 9 8 7 6 6 5 6 6 6 5 4 4 4 5 6 7 8 9 10
14 12 10 8 6 5 5 4 4 4 4 4 5 4 4 4 5 6 7 9 11 12 13 16 21 22 23 27 28 27 26 25 23 22 22 25 25 21 18 17 16 17 18 16 15 14 13 12 11 10 10 11 11 10 10 9 9 8 8 8 8 9 9 9 9 10 10 10 9 8 8 7 6 7 7 6 6 6 6 7 8 9 10 11 11
13 11 9 7 5 4 4 4 4 4 4 5 5 5 4 4 4 5 6 7 10 13 14 17 21 22 23 25 27 25 25 25 24 23 23 25 26 24 22 21 19 19 20 19 17 16 16 16 15 14 14 14 13 13 13 12 11 11 10 10 9 10 10 10 10 10 10 10 10 10 10 9 8 8 8 7 7 7 7 8 9 10 11 12 12
14 12 11 9 8 7 6 6 6 5 4 5 5 5 5 5 5 4 5 6 9 12 14 17 21 22 23 24 24 22 22 24 24 22 23 25 25 25 25 26 25 23 23 22 21 21 19 19 20 20 19 17 16 16 16 15 15 14 14 13 13 13 13 14 13 13 12 12 11 11 12 11 10 10 10 9 8 8 7 8 9 10 11 12 13
13 12 11 9 8 8 8 7 7 6 6 6 6 7 7 6 6 5 5 6 9 11 13 15 17 20 21 22 22 21 21 23 23 23 25 27 27 27 27 29 29 27 25 25 24 24 22 20 21 22 22 21 20 19 18 17 17 17 18 17 17 16 16 17 18 17 16 15 14 14 13 13 12 11 11 11 10 9 9 9 9 10 11 12 13
9 10 10 9 9 8 9 9 8 7 7 7 7 7 8 7 7 6 6 7 8 10 11 12 15 17 18 19 20 21 22 23 24 25 27 29 31 30 29 31 32 29 27 26 25 23 22 21 21 21 22 23 22 20 21 21 20 20 21 21 21 20 19 19 20 21 20 19 18 17 16 15 14 14 13 12 12 11 11 11 11 11 11 12 14
5 6 8 9 9 9 9 9 9 7 7 7 7 7 7 7 7 7 7 8 8 10 11 13 13 14 15 17 19 22 23 24 26 27 27 29 31 30 26 28 30 27 25 25 25 23 23 23 21 20 21 21 20 20 21 21 20 21 22 23 23 23 22 21 20 22 23 22 21 20 18 17 17 16 16 15 13 13 12 12 13 12 13 13 14
7 6 6 7 8 9 10 10 10 9 7 6 6 7 7 7 7 8 9 10 9 10 11 13 13 13 14 15 17 20 22 22 23 25 25 26 28 27 25 26 29 25 20 20 23 24 24 22 20 19 18 17 17 17 16 16 17 20 22 23 24 23 22 20 20 21 23 23 22 22 21 20 20 19 19 17 15 14 14 14 14 14 14 15 16
9 8 7 7 7 8 10 10 11 11 10 8 6 6 6 6 8 10 11 10 10 10 10 11 12 12 13 14 15 16 18 18 19 19 21 22 24 23 23 23 24 21 14 12 16 19 19 18 17 15 13 12 12 12 11 12 14 16 18 20 20 19 18 18 19 19 20 21 22 23 24 23 23 22 21 19 17 16 15 15 15 15 15 16 17
12 9 8 10 10 10 9 9 10 11 11 10 9 7 6 6 9 11 11 11 10 10 10 11 11 11 12 13 14 15 15 15 15 15 17 18 19 18 18 17 15 13 9 9 11 12 12 12 11 10 9 10 10 10 10 11 12 13 15 16 17 17 17 17 16 16 17 18 20 23 24 25 24 24 22 20 18 17 16 15 16 16 16 17 19
17 13 9 9 9 10 11 10 9 10 11 9 7 7 8 8 9 10 11 11 10 10 11 11 10 10 10 11 12 14 13 13 13 14 15 16 15 15 14 13 12 10 9 9 8 8 8 8 7 8 9 9 10 11 11 12 12 13 14 15 16 17 18 18 17 16 16 16 17 20 24 25 26 25 22 19 18 17 16 16 16 17 18 19 21
20 18 13 9 5 6 8 8 9 11 12 11 8 6 7 8 9 10 11 11 11 12 12 11 11 11 11 11 12 13 12 12 13 14 14 14 14 14 13 12 12 11 9 9 9 9 9 9 9 9 10 11 11 12 12 12 11 12 12 13 14 16 17 18 18 17 16 15 15 18 22 25 25 23 21 19 17 16 17 17 17 18 20 21 23
18 18 16 13 10 6 3 3 4 6 8 10 9 7 5 6 7 9 11 11 10 11 12 12 12 11 11 12 12 13 13 13 13 14 14 13 13 13 13 12 12 11 11 10 10 11 11 11 11 12 13 13 13 13 13 12 11 12 12 12 13 13 14 15 16 17 16 15 15 17 20 23 24 23 22 21 19 18 18 18 18 20 22 23 24
14 14 13 13 13 12 10 8 7 5 3 1 1 3 4 5 4 2 6 10 11 10 11 12 12 11 11 12 12 14 14 13 14 14 14 14 14 13 13 13 12 12 12 12 12 13 13 13 13 13 13 13 12 12 12 11 11 11 11 12 12 12 12 12 13 14 14 13 14 16 19 22 24 24 23 22 20 18 18 19 20 22 23 23 23
12 11 10 10 10 10 10 9 9 8 6 5 7 7 4 2 1 2 2 5 10 10 8 9 10 9 10 12 12 13 14 13 14 15 15 15 14 13 13 12 12 12 11 12 13 13 14 14 13 13 13 12 11 12 12 12 12 12 12 12 12 13 13 12 11 11 11 11 12 15 19 22 23 22 21 20 19 18 19 21 22 23 22 22 23
13 13 13 13 12 11 10 8 7 7 7 7 6 8 8 9 9 8 7 8 9 8 7 8 9 9 9 12 12 12 12 12 13 15 16 15 15 14 12 10 10 10 10 10 10 10 11 12 13 14 14 14 14 14 14 14 13 13 13 12 13 13 13 12 12 11 10 11 12 16 19 20 20 19 19 19 19 20 21 22 23 23 23 23 24
15 16 16 17 17 16 15 14 12 11 11 10 7 6 6 8 9 10 12 13 14 13 12 11 10 10 10 11 12 13 13 13 13 14 14 14 14 14 13 10 8 9 9 9 9 9 10 11 12 14 15 15 16 16 15 15 14 14 14 13 13 13 13 12 11 10 10 12 14 16 18 19 19 19 19 20 21 21 22 23 23 24 24 25 26
18 19 19 20 20 21 20 20 19 18 17 16 14 11 10 9 9 10 11 11 12 14 15 13 11 11 11 12 12 12 13 14 14 13 12 12 13 13 12 10 9 10 10 11 11 12 13 13 12 13 14 16 17 17 17 17 16 16 15 14 14 13 12 11 11 11 12 13 14 16 17 18 18 19 19 20 21 21 22 23 24 25 26 27 28
21 21 22 23 23 24 24 23 22 21 21 21 20 19 17 15 15 13 12 11 12 14 16 18 17 14 13 13 13 12 12 13 14 13 13 12 13 13 13 12 11 11 12 13 13 13 14 15 15 15 15 16 17 18 18 17 16 16 16 15 14 14 13 12 12 12 13 14 15 16 17 18 18 19 19 20 21 21 22 23 25 26 27 28 29
25 25 25 25 27 27 27 26 25 23 22 22 23 22 21 21 20 19 16 15 14 14 15 18 20 18 17 16 17 17 16 16 15 15 14 13 13 13 13 12 12 11 11 12 13 14 15 17 18 17 16 16 16 17 17 15 15 15 15 15 15 14 14 14 14 14 14 15 17 17 17 17 18 18 19 20 21 22 23 25 26 26 27 28 29
28 28 28 28 29 29 29 29 28 27 25 24 24 23 22 22 22 22 21 21 19 17 15 16 18 19 19 18 19 20 20 19 18 17 16 15 15 15 14 14 13 13 13 13 14 16 17 19 20 19 16 16 16 15 15 14 13 14 14 15 15 15 15 15 15 15 15 16 16 16 15 16 17 18 19 21 22 23 23 23 24 25 26 27 28
28 29 29 29 29 29 29 30 30 29 28 27 27 26 25 24 21 20 21 22 23 23 21 19 18 19 21 21 20 21 21 20 19 19 19 17 17 17 16 16 16 16 17 18 19 19 19 19 19 19 18 17 17 15 14 13 14 14 15 16 16 16 16 16 15 15 15 15 14 14 15 16 17 19 20 21 21 21 21 22 23 24 25 26 27
28 29 29 29 30 30 30 30 30 30 29 28 27 28 29 28 25 22 20 19 21 23 25 24 23 22 22 23 23 23 23 22 21 21 22 21 20 19 19 18 18 20 21 21 21 20 19 19 19 20 19 19 19 17 15 14 15 16 16 17 17 17 16 16 16 15 15 14 14 15 16 17 17 18 18 18 18 19 20 21 22 23 24 25 25
27 27 28 29 30 30 31 31 32 31 29 28 27 27 28 28 28 26 24 22 20 19 20 22 23 22 23 23 23 23 23 22 21 21 21 20 20 19 18 18 18 19 20 20 20 20 19 19 20 20 21 22 22 19 17 16 16 17 17 18 18 17 16 15 15 14 13 13 14 14 15 15 14 14 15 16 17 18 19 20 21 21 22 22 23
30 30 30 31 31 31 32 32 33 33 31 31 31 29 28 27 27 27 26 26 25 23 20 18 17 17 19 22 24 24 23 22 21 21 21 21 20 18 18 17 17 17 17 19 20 21 20 20 20 19 18 19 20 19 17 17 18 18 18 19 18 16 14 13 12 11 11 11 12 12 12 11 12 13 14 15 16 17 18 18 19 20 21 22 23
35 35 35 36 36 36 35 36 36 35 34 34 34 33 31 29 27 26 26 26 27 27 26 23 19 16 16 18 20 22 24 24 24 23 23 22 21 20 19 18 17 16 16 17 18 18 18 18 17 15 14 14 14 14 15 17 19 19 18 17 15 13 12 11 10 10 10 9 9 9 10 11 12 13 14 15 15 16 16 17 18 20 21 22 23
36 37 37 38 38 39 39 40 41 40 38 38 38 37 35 33 31 29 27 26 26 27 28 29 27 24 21 19 18 18 20 22 24 26 25 24 23 22 21 20 19 18 17 16 16 15 15 15 14 13 13 12 11 12 14 18 19 19 17 15 12 11 9 8 8 9 8 8 8 9 10 11 11 12 13 13 14 15 15 17 18 19 21 21 22
32 33 33 34 34 35 36 38 39 40 41 42 42 41 40 38 35 32 28 26 25 25 26 29 30 29 28 25 22 20 19 20 22 23 23 23 22 21 21 20 20 19 17 16 16 16 16 16 15 14 12 12 12 13 14 16 18 17 15 13 10 9 8 8 8 8 7 7 8 9 10 10 11 11 12 12 13 14 15 17 18 18 19 20 21
Wind_Direction
185 186 187 187 188 189 190 188 190 198 201 196 193 189 191 194 198 199 194 198 207 207 205 201 201 219 244 250 250 248 237 227 233 235 237 240 234 226 225 224 223 225 229 229 225 226 234 241 247 248 245 246 250 253 251 242 235 231 227 222 216 213 213 214 214 213 216 220 223 227 230 237 251 264 269 268 266 264 257 249 248 251 249 249 256
187 188 188 187 188 189 190 189 191 193 191 190 191 191 194 197 199 201 197 198 206 209 204 201 207 226 254 255 249 246 236 228 240 246 244 241 235 228 223 218 213 214 216 213 216 225 232 239 249 256 249 244 246 249 249 245 239 230 226 224 217 215 218 220 222 223 223 219 217 221 222 227 247 267 274 271 267 267 264 259 257 260 262 260 261
191 191 190 189 188 188 190 191 189 185 184 185 188 192 195 196 199 202 198 199 206 211 211 212 216 221 236 244 236 239 237 227 234 250 242 232 233 226 223 224 222 224 225 215 210 221 231 236 240 254 253 245 243 242 242 241 235 225 224 225 224 221 223 225 226 227 228 224 224 227 225 228 246 263 273 274 270 269 269 268 263 261 265 268 270
192 193 192 189 186 187 190 192 187 182 183 184 187 192 193 196 202 202 200 202 206 210 215 220 217 211 214 218 218 230 243 240 238 239 230 225 228 222 222 228 232 235 236 233 228 226 231 231 229 238 244 238 235 232 232 234 231 225 222 222 226 228 228 230 232 234 235 233 232 232 232 240 251 255 258 268 277 275 269 272 274 271 270 273 282
191 192 192 189 186 188 190 190 187 184 185 186 189 193 197 201 203 202 202 203 205 208 212 215 210 203 202 204 210 221 236 245 247 246 241 237 237 228 224 228 235 238 237 239 241 236 235 235 236 242 241 232 227 225 226 230 232 232 229 225 227 232 234 235 239 243 243 242 239 237 239 248 257 250 231 228 255 263 254 274 297 291 276 274 286
194 195 192 188 185 186 188 190 189 188 189 191 194 199 204 204 200 201 203 202 204 207 206 205 202 201 201 201 208 219 229 238 250 257 259 259 260 253 235 221 227 233 234 237 240 242 246 247 239 229 229 228 224 223 222 225 229 230 231 228 225 227 232 237 243 245 244 243 242 244 249 255 263 249 220 204 189 168 154 153 161 167 223 267 287
199 199 195 190 186 185 187 191 193 192 193 195 199 204 208 204 200 201 202 202 205 207 204 200 199 202 206 208 216 231 233 239 251 254 257 262 264 261 249 220 214 223 229 237 244 254 266 248 172 192 206 215 219 220 218 214 212 216 220 223 225 226 229 235 241 242 241 239 241 244 247 251 254 240 216 201 185 173 174 185 197 197 212 237 241
202 202 198 194 191 189 190 193 196 197 197 200 203 207 207 201 199 201 202 204 207 208 206 203 203 208 211 214 221 236 245 259 255 247 250 256 255 252 248 232 220 221 229 247 258 261 262 142 157 180 195 208 218 224 219 186 130 119 143 179 216 229 230 232 229 230 232 230 233 238 242 241 234 222 213 211 213 208 202 209 213 212 221 224 218
203 204 201 198 196 194 194 195 198 200 202 206 209 209 204 200 201 204 205 207 207 207 207 206 210 218 223 224 224 229 240 248 233 224 234 245 248 248 247 243 238 229 233 250 252 241 209 148 156 174 189 204 217 229 251 304 354 3 6 34 55 50 278 233 219 216 225 223 223 232 241 237 228 228 235 243 245 240 230 226 212 199 206 217 222
204 204 202 202 200 198 197 197 198 202 207 212 215 211 204 202 205 205 203 202 201 202 206 209 214 222 230 232 230 231 236 234 216 208 215 229 239 246 246 246 246 242 240 237 223 214 189 142 135 154 184 215 230 250 274 298 312 312 309 309 340 56 60 74 83 86 102 159 189 208 234 240 239 246 252 253 250 246 237 226 204 189 170 133 200
201 201 202 204 203 201 199 199 200 204 209 214 218 214 206 203 204 202 201 201 202 205 208 211 216 224 232 234 232 235 238 228 211 206 213 223 230 237 238 233 234 236 235 220 202 201 191 146 96 49 305 295 292 305 315 315 309 303 301 300 116 107 99 95 89 87 89 91 112 131 155 210 229 238 234 234 246 261 256 237 232 229 196 141 182
199 198 201 204 203 201 201 202 203 205 209 213 217 214 206 206 209 208 209 211 213 214 213 212 214 219 229 234 233 239 242 224 207 205 218 228 228 229 228 220 210 211 217 213 202 199 201 181 78 51 63 74 77 75 68 62 64 74 88 99 104 109 119 125 125 116 97 84 101 124 143 174 193 198 204 228 257 272 267 256 260 259 194 164 184
199 199 202 205 204 203 204 205 206 209 212 214 215 213 212 216 218 219 221 220 216 215 215 213 210 213 223 229 233 243 244 222 204 202 215 225 224 216 215 211 200 194 198 203 202 197 191 140 109 104 105 106 106 104 100 94 92 90 91 94 99 107 117 122 126 128 120 115 122 140 163 187 207 215 232 274 298 297 291 293 295 170 142 150 168
200 202 204 206 206 207 208 209 211 214 216 217 217 216 219 223 223 225 228 226 222 219 215 208 203 208 216 224 236 243 236 220 205 193 201 210 208 198 195 198 191 179 170 174 180 174 154 132 120 117 114 114 114 110 103 97 95 96 98 101 104 107 109 109 116 122 121 119 117 117 130 150 133 85 62 47 21 359 356 359 8 47 135 157 169
197 202 206 207 209 211 211 212 215 218 221 223 221 220 224 227 228 229 231 230 226 217 208 201 199 203 209 219 228 219 212 221 208 186 189 198 192 184 183 185 180 173 160 154 158 155 148 141 133 129 126 123 120 114 108 101 96 96 98 103 109 109 108 111 115 116 111 107 106 103 103 100 88 79 68 64 58 48 44 39 37 50 101 153 175
176 190 198 206 211 214 216 217 219 223 226 227 225 224 227 230 231 234 237 230 218 203 193 196 203 203 204 214 216 204 211 221 208 186 184 194 195 187 183 185 183 178 168 159 157 154 154 152 146 142 138 133 130 123 115 106 99 95 95 97 100 99 99 101 101 101 100 97 99 100 100 100 97 90 78 65 57 48 44 41 38 46 71 109 157
155 170 181 197 205 210 216 219 223 228 230 232 231 229 231 236 236 239 237 220 203 198 200 204 210 208 209 217 214 212 220 219 207 193 188 194 199 197 194 195 192 188 182 174 169 162 158 154 149 148 143 135 131 126 116 107 101 98 98 97 95 94 93 93 90 89 90 88 87 90 93 95 91 82 69 57 48 38 34 33 33 38 44 50 63
168 179 182 192 200 202 205 212 221 228 234 237 238 236 236 239 240 242 236 210 191 208 222 214 212 213 220 226 220 218 221 216 209 205 198 197 201 201 201 202 198 196 193 188 184 177 167 159 151 146 140 133 130 126 121 115 110 107 105 102 100 99 96 94 92 87 83 79 77 81 85 86 83 77 66 54 44 33 28 26 26 32 33 32 33
179 193 197 202 204 205 203 207 218 227 237 241 240 237 234 236 238 241 241 225 206 228 239 222 216 220 229 228 220 218 218 210 204 213 209 202 203 203 202 203 202 200 200 198 195 188 180 171 160 153 147 140 134 130 126 122 118 115 111 108 104 102 99 97 94 88 83 79 78 80 79 79 81 81 72 59 45 34 26 20 19 23 23 20 19
175 180 185 189 189 195 197 206 222 227 234 235 229 226 228 233 237 241 247 247 241 246 245 227 221 226 226 217 214 216 217 209 201 210 214 207 208 209 204 203 205 204 204 203 202 196 190 184 176 170 165 159 151 144 138 134 131 128 124 122 120 115 112 107 103 100 94 89 84 82 82 90 101 101 89 71 54 44 32 20 16 15 13 10 6
164 165 169 171 172 184 192 202 217 217 216 216 202 196 210 224 232 238 243 246 246 245 242 228 218 216 212 208 210 213 215 213 206 207 215 212 211 213 209 207 209 209 208 206 204 201 197 196 193 188 182 179 174 167 164 160 155 154 155 155 157 160 158 151 152 167 176 190 201 214 214 170 160 164 140 97 64 52 39 24 14 9 5 360 355
154 157 163 166 166 174 187 194 198 197 202 209 193 175 193 217 229 239 242 241 240 237 232 223 212 207 207 208 209 211 212 213 208 207 217 216 210 210 214 215 213 216 217 213 209 207 207 208 207 208 209 205 202 199 198 200 196 195 195 193 196 201 208 210 211 223 230 230 236 249 253 253 245 236 231 228 348 31 21 8 1 355 352 346 341
153 159 160 161 160 162 170 179 183 186 198 210 207 191 197 220 234 245 247 240 235 230 225 218 210 207 208 208 210 212 212 211 208 208 216 216 211 214 220 221 222 228 232 230 228 224 223 225 223 226 231 230 229 227 226 228 225 226 231 232 232 231 234 236 234 239 243 241 242 245 245 252 259 259 253 253 262 291 323 329 334 335 336 335 333
160 162 159 157 160 162 163 172 180 183 190 197 207 209 207 215 223 232 239 239 237 232 222 213 208 207 207 208 212 214 213 213 212 211 211 212 215 221 224 225 230 236 238 240 241 238 238 240 239 241 244 246 248 248 250 252 249 246 245 247 252 251 249 248 246 246 248 250 255 257 252 251 259 265 264 263 270 280 296 309 317 323 325 328 329
162 160 158 161 168 175 171 172 170 165 171 178 184 196 203 209 211 213 226 238 241 236 225 213 208 207 207 210 214 215 216 217 218 219 216 214 220 226 226 225 226 229 234 237 239 241 243 244 244 247 250 251 254 257 261 264 263 263 259 259 261 263 264 263 258 256 255 256 260 264 264 260 258 265 272 277 281 282 293 305 311 314 317 322 325
155 146 142 147 153 163 173 170 161 151 149 157 168 179 192 206 215 215 216 228 237 238 231 218 210 209 210 212 214 215 217 219 222 227 225 221 225 227 225 225 224 226 231 232 233 239 242 244 249 252 255 256 256 261 269 271 268 266 265 266 265 267 271 271 268 267 266 266 267 268 271 272 267 264 266 271 277 281 292 302 305 307 310 314 318
143 135 132 129 126 134 148 158 164 162 156 160 165 175 195 213 222 223 216 222 236 238 231 221 215 214 213 210 209 211 214 217 222 229 232 232 232 228 224 226 229 233 234 230 231 237 240 243 248 251 253 256 258 261 266 268 269 269 268 268 269 270 271 270 270 269 269 271 273 272 274 276 274 269 264 265 269 275 286 295 298 301 303 305 308
143 135 131 130 131 135 141 149 161 169 175 179 176 177 192 209 221 227 216 213 225 229 225 220 218 217 214 209 210 212 214 218 224 230 232 233 235 233 228 228 232 235 234 232 234 240 246 247 247 251 254 255 256 259 263 262 261 264 266 267 270 274 276 273 271 269 268 269 270 272 274 276 277 276 271 266 267 268 275 286 291 293 294 297 301
156 153 148 148 149 149 149 152 156 162 168 171 173 179 190 203 216 225 215 203 212 221 224 221 217 217 219 218 219 221 223 226 231 233 233 233 236 236 230 230 233 232 232 235 236 241 250 251 247 250 257 258 257 263 271 269 262 260 262 263 267 273 279 278 272 268 267 267 267 267 270 274 277 278 274 269 268 270 276 286 292 289 289 293 300
135 159 166 170 171 167 161 158 155 159 168 169 168 172 181 198 216 225 221 215 221 231 234 234 231 227 226 224 223 225 230 233 232 232 235 237 237 234 231 234 239 235 231 235 240 245 252 253 250 253 260 262 263 267 272 271 264 261 261 263 267 272 276 276 271 265 262 263 265 264 265 268 270 273 272 269 268 272 279 289 293 290 289 295 302
83 99 123 154 174 179 176 171 167 166 170 169 167 166 169 183 202 213 219 219 223 230 233 237 239 234 227 224 222 223 228 230 229 228 232 237 239 239 239 243 251 251 242 240 246 251 253 254 255 258 258 259 263 266 268 267 265 265 264 264 267 270 271 269 267 263 260 260 262 262 263 263 264 266 268 268 267 270 276 285 289 290 295 302 307
81 86 91 103 127 151 162 169 174 177 178 176 172 167 169 183 192 198 202 204 206 212 215 220 224 224 225 226 224 222 221 221 223 225 230 236 239 242 242 244 252 259 258 246 245 248 250 252 253 255 253 254 259 264 265 266 267 267 264 263 263 263 262 262 263 264 263 262 262 261 260 260 262 264 265 264 263 266 273 281 285 290 299 305 307
67 79 93 101 107 116 131 148 162 171 177 180 181 184 188 193 195 195 195 193 192 190 191 195 201 207 214 218 221 223 220 217 219 220 223 227 228 230 234 236 240 243 234 221 227 237 244 248 250 252 252 251 256 263 269 272 270 268 265 264 263 263 263 262 262 264 264 265 265 263 260 259 259 259 257 256 258 263 271 278 283 291 298 302 304
53 56 71 94 106 110 114 119 132 148 157 159 166 181 191 198 201 202 202 201 197 189 185 185 187 190 194 197 202 206 206 204 204 204 205 210 214 218 222 222 219 213 208 210 220 231 239 244 248 251 252 254 259 266 273 276 276 274 271 268 268 268 267 267 268 267 264 261 263 264 263 260 257 254 251 249 254 262 270 276 283 290 296 300 301
50 49 51 57 73 105 115 105 103 119 128 125 124 141 171 192 200 202 204 207 208 206 201 199 199 198 196 195 195 194 194 196 198 201 204 207 212 217 218 219 219 218 222 226 226 227 230 236 244 252 258 262 266 270 273 275 277 278 279 279 279 278 276 275 274 274 270 263 261 264 263 257 251 247 243 242 249 261 270 277 284 290 295 298 298
41 42 45 44 38 35 41 43 56 86 103 106 104 104 123 158 181 197 204 204 205 211 212 210 212 213 209 205 202 200 202 205 207 208 211 213 218 221 222 226 229 231 238 241 238 238 241 246 253 260 264 265 267 270 273 273 275 278 283 289 292 293 290 284 277 275 273 268 265 263 257 249 243 240 241 247 257 266 272 279 285 289 292 292 292
27 31 38 40 36 32 30 24 7 353 359 94 121 61 64 94 113 166 211 206 204 209 214 215 217 220 217 212 211 214 216 219 220 218 218 221 224 227 230 233 236 238 244 248 250 252 255 257 260 262 263 264 266 267 270 273 276 278 284 291 297 300 300 292 282 276 272 269 269 263 251 241 238 240 245 255 265 271 274 279 283 286 287 287 289
3 4 9 13 16 19 21 21 17 8 348 296 266 272 300 305 304 357 330 223 203 194 196 206 210 214 218 214 215 222 226 226 223 217 215 219 225 235 244 244 240 241 245 249 253 256 258 260 259 258 259 262 263 265 270 275 278 280 284 288 295 302 306 305 302 295 284 277 270 260 248 241 241 246 254 263 271 274 276 279 282 283 284 285 286
339 336 336 337 338 339 339 341 353 2 356 333 282 259 270 273 262 264 277 273 250 227 219 218 213 217 226 221 218 223 227 228 226 222 222 225 231 239 244 240 234 236 241 248 253 258 262 263 262 261 261 262 264 266 270 273 278 282 286 289 292 298 304 309 312 308 297 284 269 257 249 245 247 255 263 267 271 272 274 278 280 282 283 283 283
326 323 320 320 318 316 313 312 313 315 322 327 310 273 269 271 263 255 255 263 265 253 238 228 221 223 226 221 218 221 223 225 227 229 232 235 237 238 239 238 239 241 246 256 264 270 275 274 271 269 269 269 269 270 271 275 280 284 288 291 292 293 298 303 304 300 289 277 266 257 252 251 253 259 263 265 268 271 274 277 280 282 283 283 285
314 312 313 314 312 311 309 304 301 297 297 300 298 291 282 269 259 255 250 251 255 249 241 239 239 235 228 218 212 212 214 216 218 219 222 226 230 234 239 248 254 254 261 272 279 285 289 288 283 277 272 272 271 271 273 277 282 286 289 291 291 290 292 294 292 287 279 270 263 257 254 255 258 260 263 266 270 273 276 279 282 284 285 287 290
302 301 302 303 303 304 305 301 297 292 287 286 286 285 284 278 270 263 253 243 242 247 252 255 254 249 241 232 225 220 217 215 213 211 210 213 220 230 240 249 252 257 267 274 278 283 289 293 294 288 280 275 274 274 275 278 282 287 288 289 289 288 286 283 280 275 270 264 258 255 255 258 261 263 266 270 272 275 277 280 283 285 287 290 292
296 295 295 296 296 297 296 295 294 290 285 283 282 281 280 280 278 274 266 253 244 242 249 252 252 251 248 243 240 238 235 232 228 225 224 227 232 237 241 244 247 253 261 268 274 280 286 292 298 296 289 283 280 278 278 279 281 282 281 282 284 282 281 278 274 269 265 259 255 254 255 259 263 265 268 271 273 276 278 281 284 287 290 291 292
291 291 291 292 292 291 290 288 286 285 282 279 278 278 277 275 277 278 273 266 258 251 247 247 246 245 243 241 239 238 236 236 237 236 236 237 241 244 246 250 254 257 261 269 277 284 288 293 296 296 294 292 290 286 282 279 276 273 271 272 273 272 271 269 267 264 261 257 254 255 258 263 266 268 270 273 275 278 282 285 288 291 292 294 295
291 290 290 290 289 288 288 285 282 282 281 278 275 274 273 271 273 277 276 272 267 261 256 252 246 241 239 238 237 236 236 237 240 244 246 247 251 254 257 259 261 263 269 275 280 283 287 289 291 292 294 294 293 290 283 277 273 269 266 265 265 264 262 262 262 260 255 252 253 258 262 266 268 271 274 277 280 284 288 291 293 294 296 298 299
293 292 291 290 289 288 286 284 282 280 280 280 278 275 274 271 268 270 272 272 269 265 262 258 255 250 245 241 239 240 241 243 245 248 250 252 255 258 260 261 263 266 270 275 279 282 283 284 285 289 291 290 288 285 279 272 269 266 263 262 261 259 256 256 257 254 249 252 259 263 265 267 269 273 278 282 286 288 290 292 294 296 298 300 301
295 295 294 291 289 288 285 284 282 280 280 282 281 279 277 274 270 268 267 266 264 262 260 257 256 256 253 245 239 237 237 239 242 245 247 247 248 251 256 259 262 265 268 273 277 280 281 282 284 286 287 283 277 273 271 268 265 263 262 259 256 253 252 251 252 252 252 257 261 263 265 268 272 277 281 283 285 288 291 294 297 298 300 302 303
293 293 291 289 287 285 283 282 280 278 278 279 279 278 277 274 272 269 268 266 263 260 257 253 249 249 248 242 236 233 233 234 235 237 240 243 244 248 252 253 254 260 267 273 278 280 282 282 283 286 288 280 268 261 264 268 266 263 259 254 251 250 252 253 255 257 260 260 260 263 267 270 274 278 280 283 287 291 295 297 299 301 302 303 304
291 290 289 287 285 283 281 279 277 276 276 275 275 275 274 272 270 269 269 268 264 260 258 255 249 243 240 236 232 231 233 235 236 237 238 239 241 242 244 243 245 254 265 272 277 281 283 283 282 285 288 282 271 264 264 262 257 252 247 245 245 248 252 256 259 260 261 261 263 267 270 273 276 279 283 288 291 293 296 299 302 304 306 307 308
290 289 287 286 285 283 281 278 275 273 272 271 270 270 269 268 268 267 267 268 267 264 259 256 253 249 244 240 237 234 232 231 232 234 235 237 237 239 240 243 246 252 259 265 271 277 282 282 280 280 282 280 274 266 259 252 246 240 237 237 240 245 249 253 254 254 257 262 266 270 272 274 278 282 287 291 293 296 301 305 308 311 313 314 316
292 291 289 288 287 286 284 282 279 277 273 269 267 265 265 264 264 265 264 263 263 264 260 255 252 250 248 247 246 245 243 238 233 231 231 233 236 239 242 245 247 249 252 256 262 270 272 271 270 274 279 272 256 247 248 245 238 233 233 234 233 235 238 240 243 249 258 265 269 272 274 277 282 288 293 298 304 309 313 315 316 318 320 322 322